Location: Heisede
(52.2582°N, 9.8523°E)
Time: 23:39:41
(UTC+00:00)

Okean 3 Rocket - Pass Details

Date: 13 January 2026
Orbit: 610 x 637 km, 82.5° (Epoch: 7 February)

Event Time Altitude Azimuth Distance (km) Brightness Sun altitude
Rises 05:24:01 0° 204° (SSW) 2,871 6.9 -17.6°
Reaches altitude 10° 05:26:17 10° 210° (SSW) 1,974 6.0 -17.3°
Maximum altitude 05:30:31 49° 286° (WNW) 802 3.7 -16.6°
Drops below altitude 10° 05:34:50 10° 2° (N) 2,005 6.0 -16.0°
Sets 05:37:10 0° 8° (N) 2,921 6.9 -15.6°
